Regional Weather Roundup
Issued by NWS

Home | Current Version | Previous Version | Graphics & Text | Print | Product List | Glossary On
Versions: 1 2 3 4 5 6 7 8 9 10 11 12 13 14 15 16 17 18 19 20 21 22 23 24 25 26 27 28 29 30 31 32 33 34 35 36 37 38 39 40 41 42 43 44 45 46 47 48 49 50
812
ASUS45 KCYS 261910
RWRWY

WYOMING REGIONAL WEATHER ROUNDUP
NATIONAL WEATHER SERVICE CHEYENNE WY
100 PM MDT SUN MAR 26 2017

NOTE:  "FAIR" INDICATES FEW OR NO CLOUDS BELOW 12,000 FEET
WITH NO SIGNIFICANT WEATHER AND/OR OBSTRUCTIONS TO VISIBILITY.

WYZ001-262000-
YELLOWSTONE NATIONAL PARK

CITY           SKY/WX    TMP DP  RH WIND       PRES   REMARKS
LK YELLOWSTONE   N/A     37  17  44 CALM      29.98F
W YELLOWSTONE  NOT AVBL

$$
WYZ002>013-054>058-071-098>099-262000-
NORTHERN WYOMING

CITY           SKY/WX    TMP DP  RH WIND       PRES   REMARKS
JACKSON        MOSUNNY   43  19  39 SW9       29.99F
CODY           FAIR      49  20  31 VRB5      29.94F
GREYBULL       FAIR      52  36  54 S8        29.94F
WORLAND        FAIR      51  31  46 E3        29.95F
SHERIDAN       FAIR      54  30  40 VRB6      29.94F
BUFFALO        FAIR      50  27  40 N8        29.95F
GILLETTE       PTSUNNY   49  34  56 N9        29.94F
HULETT         CLOUDY    45  36  70 NE9       29.96S
NEWCASTLE      CLOUDY    43  36  75 N12G21    29.93S

$$
WYZ014>020-022>026-101>103-262000-
CENTRAL WYOMING

CITY           SKY/WX    TMP DP  RH WIND       PRES   REMARKS
BIG PINEY      FAIR      40  16  37 CALM      30.02F
PINEDALE       FAIR      34  27  75 N8        30.03F WCI  27
DUBOIS         FAIR      43  14  31 N10G17    29.94F
LANDER         CLOUDY    48  28  46 E10       29.95F
RIVERTON       FAIR      46  24  42 VRB3      29.97F
CASPER         CLOUDY    45  35  68 NW7       29.97F
DOUGLAS        CLOUDY    43  36  76 NW15      29.97S

$$
WYZ021-027>030-104>119-262000-
SOUTHERN WYOMING

CITY           SKY/WX    TMP DP  RH WIND       PRES   REMARKS
EVANSTON       FAIR      41  23  48 S10       30.03F
KEMMERER         N/A     36  21  55 W12       30.03F WCI  27
FORT BRIDGER   FAIR      43  21  42 W7G17     30.06F
ROCK SPRINGS   FAIR      43  23  45 SW9       30.03F
DIXON            N/A     44  31  60 W5        30.05S
RAWLINS        CLOUDY    43  32  65 W10       29.99F
SARATOGA       LGT RAIN  37  36  93 NW12G18   30.00S WCI  30
LARAMIE        CLOUDY    41  31  67 N20G26    29.93F
CHEYENNE       CLOUDY    39  34  82 N14G23    29.93R WCI  31
TORRINGTON     CLOUDY    48  36  63 NW12      29.92R
PINE BLUFFS    CLOUDY    46  36  66 N18G29    29.92R

$$




USA.gov is the U.S. government's official web portal to all federal, state and local government web resources and services.